Weather History for Needles, CA

Change the Weather History Date:

Saturday, June 7, 2014

  Actual Average Record
Temperature  
Mean Temperature 94 °F -  
Max Temperature 108 °F 99 °F 117 °F (2013)
Min Temperature 81 °F 71 °F 53 °F (1987)
Cooling Degree Days 28    
Growing Degree Days 44 (Base 50)    
Moisture  
Dew Point 17 °F    
Average Humidity 8    
Maximum Humidity 14    
Minimum Humidity 4    
Precipitation  
Precipitation 0.00 in - - ()
Sea Level Pressure  
Sea Level Pressure 29.52 in    
Wind  
Wind Speed 8 mph (SW)    
Max Wind Speed 13 mph    
Max Gust Speed 23 mph    
Visibility 10 miles    
Events      
Averages and records for this station are not official NWS values.
T = Trace of Precipitation, MM = Missing Value Source: NWS Daily Summary

Daily Weather History Graph

Daily Weather History Graph

Search for Another Location

Airport:

Trip Planner

Search our weather history database for the weather conditions in past years. The results will help you decide how hot, cold, wet, or windy it might be!

Date:

Astronomy

Jun. 07, 2014 Rise Set
Actual Time 5:24 AM PDT 7:50 PM PDT
Civil Twilight 4:55 AM PDT 8:19 PM PDT
Nautical Twilight 4:19 AM PDT 8:55 PM PDT
Astronomical Twilight 3:39 AM PDT 9:35 PM PDT
Moon 2:23 PM PDT (6/7) 1:35 AM PDT (6/7)
Length of Visible Light 15h 23m
Length of Day
14h 25m
Waxing Gibbous, 69% of the Moon is Illuminated
Jun 7
Waxing Gibbous
Jun 12
Full
Jun 19
Last Quarter
Jun 27
New
Jul 5
First Quarter

Hourly Weather History & Observations

Time (PDT) Temp. Dew Point Humidity Pressure Visibility Wind Dir Wind Speed Gust Speed Precip Events Conditions
12:56 AM 91.9 °F 21.9 °F 8% 29.49 in 10.0 mi WSW 12.7 mph - N/A   Clear
1:56 AM 89.1 °F 24.1 °F 9% 29.49 in 10.0 mi WSW 8.1 mph - N/A   Clear
2:56 AM 86.0 °F 25.0 °F 11% 29.50 in 10.0 mi Variable 5.8 mph - N/A   Clear
3:56 AM 82.9 °F 26.1 °F 13% 29.51 in 10.0 mi Calm Calm - N/A   Clear
4:56 AM 81.0 °F 28.0 °F 14% 29.52 in 10.0 mi NW 3.5 mph - N/A   Clear
5:56 AM 82.0 °F 27.0 °F 13% 29.54 in 10.0 mi NW 9.2 mph - N/A   Clear
6:56 AM 84.9 °F 28.9 °F 13% 29.56 in 10.0 mi WNW 6.9 mph - N/A   Clear
7:56 AM 91.0 °F 28.9 °F 11% 29.57 in 10.0 mi Calm Calm - N/A   Clear
8:56 AM 93.0 °F 35.1 °F 13% 29.58 in 10.0 mi East 5.8 mph - N/A   Clear
9:56 AM 96.1 °F 32.0 °F 10% 29.57 in 10.0 mi Variable 3.5 mph - N/A   Clear
11:56 AM 105.1 °F 12.0 °F 4% 29.55 in 10.0 mi SSW 10.4 mph 18.4 mph N/A   Clear
12:56 PM 105.1 °F 12.9 °F 4% 29.53 in 10.0 mi South 8.1 mph 23.0 mph N/A   Clear
1:56 PM 105.1 °F 10.0 °F 4% 29.52 in 10.0 mi SW 8.1 mph - N/A   Clear
2:56 PM 106.0 °F 6.1 °F 4% 29.51 in 10.0 mi ESE 4.6 mph 16.1 mph N/A   Clear
3:56 PM 106.0 °F 1.0 °F 4% 29.50 in 10.0 mi WSW 10.4 mph - N/A   Clear
4:56 PM 106.0 °F 3.0 °F 4% 29.49 in 10.0 mi SSE 11.5 mph - N/A   Clear
5:56 PM 105.1 °F 3.0 °F 4% 29.48 in 10.0 mi SE 6.9 mph - N/A   Clear
6:56 PM 104.0 °F 5.0 °F 4% 29.49 in 10.0 mi SSW 4.6 mph - N/A   Clear
7:56 PM 100.9 °F 8.1 °F 4% 29.49 in 10.0 mi SSW 9.2 mph - N/A   Clear
8:56 PM 98.1 °F 12.0 °F 4% 29.51 in 10.0 mi SSW 10.4 mph - N/A   Clear
9:56 PM 96.1 °F 12.9 °F 5% 29.54 in 10.0 mi SSW 11.5 mph - N/A   Clear
11:56 PM 93.0 °F 19.9 °F 7% 29.54 in 10.0 mi WSW 8.1 mph - N/A   Clear